Temperature
23 22 22 22 28 31 31 30 31 30 30 29 28 28 28 28 27 25 21 21 20 19 19 19 19 19 19 19 19 19 19 19 19 19 19 19 18 18 18 18 18 18 18 18 18 18 18 18 18
22 22 22 27 31 30 30 30 30 30 28 27 27 27 27 26 24 22 21 20 20 19 19 19 19 19 19 19 19 19 19 19 19 19 19 19 18 18 18 18 18 18 18 18 18 18 18 18 18
22 22 26 31 31 31 30 30 30 29 28 28 28 27 26 25 23 22 20 20 20 19 19 19 19 19 19 19 19 19 19 19 19 19 19 18 18 18 18 18 18 18 18 18 18 18 18 18 18
22 25 28 31 30 30 30 30 29 29 28 27 28 27 25 22 22 21 20 20 20 20 19 19 19 19 19 19 19 19 19 19 19 18 18 18 18 18 18 18 18 18 18 18 18 18 18 18 18
24 28 31 30 30 30 30 29 29 30 29 28 28 27 25 22 21 21 20 20 20 20 19 19 19 19 19 19 19 19 18 18 18 18 18 18 18 18 18 18 18 18 18 18 18 18 18 18 18
27 30 30 30 30 30 30 29 29 30 29 28 27 27 24 21 21 20 20 20 20 20 19 19 19 19 19 19 19 18 18 18 18 18 18 18 18 18 18 18 18 18 18 18 18 18 18 18 18
29 30 30 31 30 30 30 29 29 30 29 28 28 27 24 22 20 20 20 20 20 20 19 19 19 19 19 19 19 18 18 18 18 18 18 18 18 18 18 18 18 18 18 18 18 18 18 18 18
28 31 30 31 30 30 29 29 29 29 28 27 27 28 25 22 20 20 20 20 20 19 19 19 18 18 18 18 18 18 18 18 18 18 18 18 18 18 18 18 18 18 18 18 18 18 17 17 17
27 30 30 30 30 30 29 29 28 28 27 27 26 26 24 21 20 20 20 20 19 19 19 19 19 18 18 18 18 18 18 18 18 18 18 18 17 17 17 17 18 18 18 18 17 17 17 17 17
29 30 30 31 31 30 29 29 28 28 28 27 26 24 22 21 21 21 20 20 20 19 19 19 19 18 18 18 18 18 18 18 17 17 17 17 17 17 17 18 18 18 17 17 17 17 17 17 17
29 30 30 30 29 29 29 29 28 29 29 28 27 24 22 21 21 21 21 21 20 20 19 19 19 19 18 18 18 18 18 17 17 17 17 17 17 17 17 17 17 17 17 17 17 17 17 17 17
29 29 29 29 28 28 29 29 28 28 28 27 26 25 23 22 22 22 21 21 20 19 19 19 19 19 18 18 18 18 18 17 17 17 17 17 17 17 17 17 17 17 17 17 17 17 17 17 16
28 29 28 28 28 28 28 28 28 28 27 26 25 24 24 23 22 22 21 21 20 20 19 19 19 19 19 18 18 18 18 17 17 17 17 17 17 17 17 17 17 17 17 17 17 17 17 17 16
28 28 28 28 28 28 28 28 28 27 26 26 25 25 24 23 22 22 21 20 20 20 19 19 19 19 19 19 18 18 18 18 17 17 17 17 17 17 17 17 17 17 17 17 17 17 17 17 17
27 28 28 29 28 28 29 28 28 27 26 26 25 25 24 23 22 22 21 20 20 20 19 19 19 19 19 18 18 18 18 18 17 17 17 17 17 17 17 17 17 17 17 17 17 17 17 16 16
28 28 28 29 29 28 28 29 29 26 26 26 26 25 24 23 22 21 21 20 20 19 19 19 19 19 19 18 18 18 18 17 17 17 17 17 17 17 17 17 17 17 16 16 17 17 16 16 16
28 28 28 29 29 29 29 29 29 27 26 26 26 25 24 23 22 21 21 20 20 19 19 19 19 19 19 18 18 18 18 17 17 17 17 17 17 17 17 17 17 17 16 16 16 16 16 16 16
28 28 28 28 29 28 28 29 29 27 27 27 26 25 24 23 22 21 20 20 19 19 19 19 19 19 18 18 18 17 17 17 17 17 17 17 17 17 17 17 17 16 16 16 16 16 16 16 16
28 28 28 28 29 28 28 28 28 27 27 27 26 25 24 23 22 21 20 20 19 19 19 19 19 19 18 18 18 17 17 17 17 17 17 17 17 17 17 17 16 16 16 16 16 16 16 16 16
27 27 28 28 28 28 28 28 28 28 27 27 26 25 24 23 22 21 20 20 19 19 19 18 18 18 18 18 18 17 17 17 17 17 17 17 16 16 16 16 16 16 16 16 16 16 16 16 16
27 27 28 27 27 27 27 27 28 28 27 26 26 25 24 23 22 21 20 20 19 19 18 18 18 18 18 18 17 17 17 17 17 17 17 16 16 16 16 16 16 16 16 16 16 16 16 16 16
26 27 27 27 27 28 27 27 28 28 27 27 26 25 24 23 22 21 20 20 19 19 19 18 18 18 18 18 17 17 17 17 17 17 17 16 16 16 16 16 16 16 16 16 16 16 16 16 16
27 27 27 27 27 27 28 27 28 27 27 27 26 25 24 24 23 22 21 20 20 19 19 18 18 18 18 18 17 17 17 16 17 17 16 16 16 16 16 16 16 16 16 16 16 16 16 16 16
27 26 26 27 27 26 27 27 27 28 27 27 26 25 24 23 23 21 21 20 20 19 19 18 18 18 18 18 17 17 17 16 16 16 16 16 16 16 16 16 16 16 15 16 16 16 16 16 16
26 26 25 25 25 26 27 27 27 27 27 27 26 25 24 23 22 21 21 20 19 19 18 18 18 18 18 18 17 17 17 16 16 16 16 16 16 16 16 15 16 15 15 15 16 15 15 15 15
26 26 25 25 26 26 26 26 27 27 26 25 25 24 23 22 22 21 21 20 19 19 18 18 18 18 18 18 17 17 17 16 16 16 16 16 16 15 15 15 15 15 15 15 15 15 15 15 15
26 26 27 26 26 26 26 26 26 25 25 25 24 23 23 22 21 21 20 20 19 19 18 18 18 18 18 17 17 17 16 16 16 16 16 15 15 15 15 15 15 15 15 15 15 15 15 15 15
27 26 26 25 24 25 26 25 26 25 25 24 24 23 22 22 21 20 20 19 19 18 18 18 18 17 17 17 17 16 16 16 16 16 15 15 15 15 15 15 15 15 15 15 15 15 15 14 15
25 25 25 26 26 25 25 26 26 25 25 24 24 23 22 21 20 19 19 19 19 18 18 17 17 17 17 17 16 16 16 16 15 15 15 15 15 15 15 15 15 15 14 14 14 14 14 14 14
26 25 25 24 24 25 25 25 25 25 24 24 23 22 21 20 20 19 18 18 18 18 18 17 17 17 17 16 16 16 16 15 15 15 15 15 15 15 15 15 15 14 14 14 14 14 14 14 14
Wind_Speed
8 8 6 5 5 2 5 5 5 5 5 6 5 4 5 7 5 6 6 9 9 10 11 12 9 8 8 8 8 7 7 7 7 7 7 7 8 8 8 9 9 9 9 10 11 11 11 10 10
5 5 6 5 4 3 5 5 6 7 7 7 6 4 5 6 7 7 8 9 10 10 11 10 10 8 8 8 8 7 7 7 7 7 7 8 8 9 9 9 9 9 10 10 11 11 10 10 10
6 7 5 4 1 2 5 6 7 7 6 4 4 4 4 5 6 6 9 11 11 10 11 12 9 8 8 8 8 7 7 7 8 8 8 8 9 9 9 9 9 9 10 9 10 9 9 9 9
5 5 5 4 3 4 5 5 5 6 5 3 4 5 5 5 4 7 12 12 11 10 10 12 9 8 8 7 7 7 7 7 8 8 8 9 8 9 9 9 9 9 9 9 8 8 8 8 8
6 5 5 4 4 4 4 4 5 4 4 4 3 5 6 6 8 12 13 12 11 10 10 12 10 8 7 7 7 7 7 7 8 8 8 9 9 9 9 9 9 9 9 8 8 8 8 8 8
5 5 5 5 5 5 4 3 4 4 5 5 5 6 6 8 10 12 12 11 10 9 9 11 11 8 7 7 7 7 7 7 8 8 8 8 8 8 9 8 8 8 8 8 8 8 7 8 8
6 5 5 5 5 5 4 3 3 3 4 4 4 5 7 9 11 11 11 10 10 9 8 9 9 9 8 8 7 7 7 7 8 8 8 7 7 8 8 8 8 8 8 8 8 7 7 7 8
5 5 6 6 6 5 5 3 2 2 4 4 3 3 7 12 12 11 11 10 9 8 7 7 7 7 7 8 8 7 7 7 7 7 7 7 7 7 7 8 8 8 7 7 7 7 7 7 7
5 7 7 6 5 5 4 4 2 2 4 4 2 3 9 16 14 12 11 9 9 8 7 6 7 6 6 7 8 8 7 6 6 6 6 5 5 6 7 7 8 7 7 7 7 7 7 6 7
6 7 5 2 2 3 4 4 3 4 6 5 5 8 13 16 15 14 12 11 10 9 8 7 6 6 6 6 6 6 6 6 4 4 4 3 4 4 5 9 7 6 6 7 6 6 6 6 5
5 5 2 2 1 2 4 4 4 5 6 5 6 11 15 16 15 13 12 11 10 9 8 7 6 6 5 4 4 4 4 4 4 4 3 3 3 4 4 4 6 5 6 5 6 6 4 4 3
6 4 4 3 2 3 4 4 4 6 3 2 6 11 16 16 15 14 12 11 10 10 9 8 7 6 5 4 4 3 3 3 3 4 2 3 2 2 3 2 3 3 3 3 3 2 3 3 3
8 6 5 5 5 4 4 5 5 4 2 3 7 11 15 15 14 13 11 10 10 10 9 8 7 6 5 4 3 3 3 3 4 3 2 2 2 2 3 2 1 1 2 3 2 2 3 3 3
5 6 6 6 6 6 6 6 6 4 4 6 9 11 13 13 14 13 12 10 10 10 9 8 8 7 6 5 3 3 3 3 3 3 3 2 2 2 2 2 1 1 2 2 2 3 3 2 2
5 7 8 8 7 6 7 8 7 5 6 7 9 10 11 12 13 13 12 11 10 10 9 9 8 8 7 5 4 4 3 3 2 3 3 2 2 2 2 2 2 2 2 2 2 3 2 2 3
8 9 10 8 8 7 9 9 6 6 7 7 8 8 10 11 12 12 12 10 10 9 9 9 8 8 8 6 5 4 3 3 2 2 3 3 2 2 2 2 2 2 2 2 2 2 2 2 2
10 10 10 7 8 7 10 8 5 7 7 7 8 8 9 10 11 11 11 11 10 10 9 10 9 9 8 7 6 4 4 3 3 3 2 3 3 3 2 1 2 2 2 2 2 2 2 2 2
8 9 9 9 7 9 10 8 5 7 8 8 8 8 9 10 10 11 11 10 9 9 9 9 9 8 8 7 6 4 4 4 3 3 3 3 3 3 2 2 2 2 2 2 2 2 2 2 2
7 8 9 7 5 9 10 9 7 8 9 8 8 8 9 9 9 10 10 10 9 9 9 9 9 8 7 6 6 5 5 4 4 3 4 4 3 3 3 2 2 2 2 2 3 3 3 2 2
10 10 9 6 5 7 9 9 8 8 9 8 8 8 8 9 9 10 10 10 10 9 9 9 9 8 8 6 5 4 4 4 4 3 3 4 4 4 3 3 2 2 2 2 2 2 2 2 1
12 11 9 7 5 8 9 11 10 8 9 8 8 8 8 9 10 10 10 10 10 9 9 8 8 8 8 6 5 5 4 4 4 4 3 4 5 5 4 3 2 2 2 2 2 2 2 1 1
11 9 9 9 10 9 9 10 11 10 9 9 9 9 9 10 10 10 11 10 10 9 9 8 8 8 7 7 6 6 4 4 3 3 3 4 5 5 5 4 4 3 2 2 3 2 2 2 2
9 6 9 11 12 12 11 11 9 10 11 10 10 10 9 10 10 11 11 11 10 9 9 8 8 8 7 7 6 6 5 4 3 3 4 4 4 4 4 5 4 3 3 3 3 2 2 2 2
7 7 8 10 11 14 13 12 9 9 10 9 9 9 9 9 9 10 10 10 9 9 9 8 8 8 8 8 7 7 6 5 4 3 3 4 4 4 4 4 3 3 3 3 3 3 3 3 2
10 10 8 10 11 11 9 11 8 5 6 7 7 7 8 8 9 10 10 10 10 10 9 9 9 8 9 9 8 8 8 7 6 5 5 4 4 4 4 4 4 3 3 3 3 4 3 4 3
12 14 10 8 10 8 8 10 6 4 4 5 5 5 6 7 7 8 10 10 10 10 9 9 9 9 9 9 8 8 8 6 6 6 4 4 3 3 4 5 4 4 4 4 4 3 3 3 3
11 13 12 11 11 10 8 6 6 5 5 6 6 6 6 6 7 7 8 9 10 10 9 9 9 9 9 9 8 8 8 6 6 5 5 4 3 4 4 5 4 4 4 4 4 3 3 3 4
10 10 9 10 9 10 10 10 7 8 8 7 6 6 6 5 6 6 6 7 8 9 9 9 9 9 9 9 7 7 8 7 6 5 5 4 4 4 5 5 4 4 4 4 4 4 3 3 3
9 11 10 10 10 10 9 6 2 5 6 6 5 5 4 5 5 5 5 6 7 8 8 9 9 9 8 8 8 7 7 6 6 5 6 5 5 5 5 5 5 4 4 4 4 4 4 4 3
10 11 11 11 10 11 10 4 4 3 3 4 4 4 4 4 4 5 5 5 6 7 7 8 8 9 8 8 7 7 6 6 6 5 5 5 5 5 5 5 5 4 4 4 5 5 4 4 4
Wind_Direction
199 199 218 234 235 184 90 84 79 85 77 71 77 68 62 48 33 73 99 119 125 128 126 133 130 127 125 125 124 120 115 113 114 115 116 117 118 118 115 112 111 108 104 105 111 117 122 123 122
198 203 229 240 246 145 101 88 85 71 90 105 97 84 77 70 60 99 120 125 133 129 131 128 126 127 124 122 119 118 112 110 109 110 113 115 120 120 114 112 111 108 106 106 108 109 115 119 119
204 229 254 241 234 95 97 94 92 96 114 121 100 72 59 74 96 115 123 137 136 131 128 122 128 126 124 120 117 115 111 108 106 104 106 109 116 120 119 117 116 113 111 111 112 114 117 122 124
226 226 236 232 141 80 83 102 116 124 124 117 116 99 87 76 108 121 133 142 137 131 127 125 130 123 120 117 116 114 111 109 108 104 102 105 111 117 121 121 120 119 118 116 116 120 124 129 131
242 246 220 189 141 102 96 113 149 138 123 122 129 106 101 94 111 128 140 143 139 133 128 127 128 125 123 121 116 113 112 108 105 103 100 99 104 114 122 122 122 124 125 123 121 123 124 125 131
234 236 218 183 145 127 110 126 150 135 124 129 136 122 104 118 130 138 142 144 138 134 132 130 134 134 132 127 119 114 109 109 108 106 105 101 102 109 119 123 126 127 127 126 123 121 122 125 130
253 238 225 184 154 146 113 129 151 137 135 134 141 126 123 138 138 143 144 144 139 138 135 136 142 145 144 136 124 116 110 108 107 105 107 108 108 111 115 119 125 130 128 128 127 127 125 128 137
261 239 212 192 175 145 126 141 122 146 119 116 154 146 142 148 147 148 148 147 143 143 139 140 145 144 149 141 129 123 115 110 111 111 108 112 123 125 127 131 128 132 135 132 130 130 131 130 133
243 234 210 194 182 150 147 163 143 135 136 138 125 85 122 142 150 153 153 154 151 149 148 148 144 147 151 142 136 142 136 128 140 133 132 153 137 130 137 114 122 126 130 131 128 127 133 140 140
225 229 202 163 171 163 179 189 175 177 168 158 140 122 132 149 159 163 164 164 162 161 159 154 151 150 148 139 143 151 148 142 148 129 144 143 119 112 109 111 119 125 130 135 137 147 163 179 151
221 230 188 187 194 207 203 201 202 208 203 190 173 157 156 163 169 172 172 171 167 164 162 161 159 156 149 144 145 144 144 139 142 130 134 123 131 126 124 129 137 143 158 149 150 169 156 147 132
220 228 243 232 222 224 221 212 215 226 237 173 171 164 167 174 178 178 177 174 169 168 170 167 163 159 158 143 144 151 150 146 143 132 150 137 131 131 123 128 123 134 132 134 150 144 138 140 147
221 224 235 242 235 235 234 227 228 225 196 163 162 168 176 181 181 180 178 175 173 173 174 170 166 160 155 151 161 151 151 149 138 139 144 145 144 132 130 120 112 130 125 140 144 131 130 145 149
222 233 236 229 226 219 224 222 219 213 184 170 173 178 182 185 183 179 180 180 179 176 175 172 173 164 163 162 165 154 157 152 152 149 139 154 137 124 139 139 138 126 110 102 121 122 127 139 135
223 229 229 222 222 219 223 218 217 197 183 182 183 184 186 188 186 185 184 184 180 176 175 175 175 171 172 170 170 163 161 158 160 148 146 156 154 136 156 151 158 141 131 126 127 127 134 139 133
213 225 229 208 211 210 227 225 190 176 186 190 189 188 189 188 190 187 185 185 179 176 175 178 178 176 176 176 177 167 160 159 164 165 160 164 165 172 184 161 156 149 158 150 142 149 141 133 137
212 223 227 204 204 212 227 232 181 182 195 197 193 189 188 187 190 186 186 184 182 179 177 179 181 181 181 177 177 177 167 172 172 173 177 177 182 184 190 158 136 170 172 161 164 139 147 139 133
216 226 222 221 200 219 230 234 208 195 202 202 195 190 188 190 188 182 183 181 180 179 178 180 180 183 183 179 178 185 182 182 184 178 177 184 187 189 198 178 170 194 175 155 143 140 145 144 149
247 242 234 225 212 227 231 234 222 199 206 204 199 195 191 189 182 180 180 179 178 176 177 180 182 180 184 183 188 188 191 194 193 188 181 188 186 184 196 193 165 206 175 165 163 158 150 144 142
237 240 235 220 205 239 237 236 221 207 212 211 204 199 193 184 179 179 182 183 182 180 179 180 183 181 186 184 189 195 201 199 194 192 178 192 184 184 194 190 186 189 173 168 166 169 162 142 168
232 239 240 235 227 230 239 229 212 204 211 212 210 206 198 192 186 184 186 187 184 184 186 185 184 181 185 180 181 184 185 193 191 192 187 190 189 185 195 189 195 194 200 181 181 183 190 189 185
233 233 246 241 236 226 221 240 203 201 207 209 211 209 205 197 194 190 188 187 188 188 186 185 183 181 180 181 186 184 191 199 200 192 182 182 191 191 188 189 188 197 204 187 204 189 210 228 217
240 236 242 245 244 248 227 245 221 199 215 214 212 213 209 200 194 192 192 189 189 186 184 181 180 179 179 185 187 194 203 203 196 186 177 184 178 187 188 187 189 193 201 199 202 187 222 234 247
225 223 230 236 240 239 234 241 237 210 217 214 210 208 207 199 191 189 188 184 183 182 182 181 178 179 179 185 190 198 201 196 190 186 186 192 182 180 179 182 190 202 203 202 206 211 218 245 256
215 223 220 220 222 234 221 235 237 213 216 220 212 206 202 194 187 187 187 184 183 184 186 184 182 180 182 185 193 198 200 194 191 195 194 202 194 183 180 189 192 203 207 211 214 215 231 231 235
217 227 235 239 237 231 210 232 220 199 212 221 215 209 200 193 191 193 193 187 185 185 187 187 184 184 184 188 193 197 198 198 195 194 200 196 205 193 178 186 193 203 208 213 211 223 224 226 233
221 230 244 257 259 251 226 221 209 198 210 209 204 198 195 190 190 198 195 188 187 188 188 188 183 181 185 189 191 191 192 194 195 191 199 198 200 194 183 186 192 199 207 214 212 219 228 226 235
240 232 229 239 245 245 231 229 226 196 199 198 199 196 192 188 187 192 193 192 189 188 188 185 184 183 182 184 188 185 187 190 192 196 193 197 196 193 187 189 192 198 201 207 210 209 212 222 235
211 217 229 240 247 252 248 234 195 195 197 196 196 190 189 190 190 190 189 189 186 187 186 184 184 183 181 182 182 181 181 184 187 195 196 195 195 191 194 192 195 200 201 201 205 215 208 220 231
231 230 225 234 238 245 260 247 113 162 186 188 187 182 176 184 190 186 180 174 174 179 181 179 180 181 178 175 171 169 171 176 185 190 193 191 193 198 198 197 198 202 202 204 210 216 215 221 229
Height
1506 1506 1506 1508 1501 1491 1494 1493 1491 1494 1495 1500 1502 1502 1502 1504 1507 1516 1520 1518 1519 1521 1520 1520 1521 1522 1523 1523 1524 1524 1524 1525 1525 1525 1525 1525 1525 1525 1526 1526 1527 1527 1527 1527 1528 1529 1530 1531 1532
1507 1507 1508 1505 1492 1498 1498 1493 1495 1497 1501 1503 1504 1505 1505 1509 1513 1517 1518 1519 1520 1522 1522 1522 1522 1523 1524 1525 1525 1526 1526 1526 1526 1526 1526 1526 1526 1527 1527 1528 1528 1529 1529 1529 1530 1531 1531 1533 1534
1507 1507 1507 1495 1491 1495 1497 1495 1497 1500 1503 1504 1505 1507 1509 1513 1516 1518 1519 1520 1522 1523 1524 1523 1524 1525 1525 1526 1527 1527 1527 1527 1527 1527 1527 1527 1528 1528 1529 1529 1530 1530 1531 1531 1532 1533 1534 1535 1536
1509 1509 1504 1494 1496 1494 1494 1497 1499 1501 1504 1505 1506 1508 1512 1516 1517 1518 1519 1521 1524 1525 1526 1524 1525 1526 1527 1527 1528 1528 1529 1529 1529 1529 1529 1529 1529 1530 1530 1530 1531 1532 1532 1533 1534 1535 1536 1536 1537
1509 1504 1496 1495 1496 1495 1496 1499 1500 1500 1502 1505 1507 1508 1514 1518 1518 1519 1520 1523 1525 1527 1527 1526 1526 1527 1528 1528 1529 1530 1530 1530 1530 1530 1531 1531 1531 1531 1532 1532 1533 1533 1534 1535 1535 1536 1537 1538 1538
1507 1499 1496 1497 1497 1496 1498 1501 1500 1500 1503 1506 1507 1509 1515 1518 1519 1520 1522 1524 1526 1527 1528 1527 1527 1528 1529 1530 1530 1531 1531 1531 1531 1531 1532 1532 1532 1533 1533 1533 1534 1535 1535 1536 1537 1537 1538 1539 1539
1504 1495 1494 1493 1497 1497 1499 1501 1501 1501 1503 1506 1508 1509 1515 1519 1520 1521 1523 1525 1527 1528 1529 1529 1529 1529 1530 1530 1531 1531 1532 1532 1532 1533 1533 1533 1534 1534 1534 1535 1535 1536 1536 1537 1538 1538 1539 1540 1540
1503 1496 1493 1493 1496 1497 1500 1502 1503 1503 1504 1508 1509 1509 1514 1519 1520 1522 1524 1526 1528 1529 1530 1530 1531 1531 1532 1532 1532 1532 1533 1533 1533 1534 1534 1534 1535 1535 1536 1536 1536 1537 1537 1538 1539 1539 1540 1540 1541
1504 1497 1494 1492 1494 1496 1500 1502 1504 1505 1506 1508 1510 1511 1514 1517 1519 1522 1524 1526 1528 1529 1530 1531 1532 1532 1533 1534 1533 1533 1534 1534 1534 1535 1535 1536 1537 1538 1538 1538 1538 1538 1538 1539 1539 1540 1541 1541 1542
1500 1495 1492 1492 1493 1496 1499 1501 1503 1504 1505 1507 1510 1513 1514 1516 1519 1521 1524 1525 1527 1529 1530 1531 1532 1533 1534 1534 1534 1535 1535 1535 1536 1536 1537 1537 1538 1539 1539 1538 1539 1539 1539 1539 1540 1540 1541 1542 1544
1497 1493 1493 1496 1498 1499 1499 1501 1502 1502 1502 1505 1508 1511 1514 1516 1519 1521 1523 1525 1527 1528 1530 1531 1532 1533 1534 1534 1535 1536 1536 1536 1537 1537 1537 1538 1539 1539 1540 1540 1540 1540 1540 1541 1541 1541 1542 1543 1544
1497 1496 1497 1497 1499 1499 1500 1500 1502 1502 1503 1505 1508 1510 1513 1515 1517 1520 1522 1525 1526 1528 1529 1531 1532 1533 1534 1535 1535 1536 1537 1537 1538 1537 1538 1538 1539 1540 1540 1540 1541 1541 1541 1541 1542 1542 1542 1543 1544
1497 1496 1498 1499 1499 1499 1500 1500 1501 1502 1504 1506 1507 1510 1512 1514 1517 1520 1522 1524 1526 1527 1529 1530 1531 1532 1533 1534 1535 1536 1537 1537 1538 1538 1538 1538 1539 1540 1540 1540 1540 1541 1542 1542 1542 1542 1542 1543 1544
1496 1497 1497 1497 1497 1498 1499 1499 1500 1501 1503 1505 1507 1509 1511 1513 1516 1519 1521 1523 1525 1526 1528 1529 1530 1531 1532 1533 1534 1536 1537 1537 1538 1538 1538 1539 1540 1540 1540 1540 1540 1541 1541 1542 1542 1542 1542 1543 1544
1498 1496 1495 1494 1495 1496 1497 1497 1497 1500 1502 1504 1505 1508 1510 1512 1515 1517 1519 1521 1523 1525 1526 1528 1529 1530 1532 1533 1534 1535 1536 1537 1538 1538 1538 1539 1539 1539 1540 1540 1540 1541 1541 1541 1542 1542 1543 1543 1544
1494 1493 1493 1490 1492 1494 1497 1494 1494 1498 1500 1502 1504 1506 1508 1511 1514 1516 1518 1520 1522 1523 1525 1526 1528 1530 1531 1532 1533 1535 1536 1536 1537 1538 1538 1538 1539 1539 1539 1540 1541 1541 1541 1542 1542 1543 1543 1543 1544
1490 1491 1490 1488 1490 1490 1492 1490 1491 1496 1498 1500 1502 1504 1507 1510 1512 1515 1517 1518 1520 1522 1523 1525 1527 1528 1530 1531 1532 1534 1534 1535 1537 1537 1538 1538 1538 1539 1539 1540 1540 1540 1541 1542 1542 1542 1543 1543 1544
1489 1487 1488 1488 1487 1489 1489 1488 1489 1494 1496 1497 1499 1502 1505 1508 1510 1513 1515 1517 1519 1520 1522 1523 1525 1527 1528 1530 1531 1532 1534 1535 1536 1536 1537 1537 1538 1538 1539 1539 1539 1540 1541 1541 1541 1542 1542 1543 1543
1485 1486 1487 1485 1485 1487 1487 1487 1487 1491 1493 1494 1497 1500 1503 1506 1509 1511 1513 1515 1517 1518 1520 1521 1523 1525 1527 1528 1530 1531 1532 1534 1535 1535 1535 1536 1537 1537 1538 1538 1538 1539 1540 1540 1541 1541 1542 1543 1543
1487 1488 1486 1484 1485 1487 1485 1485 1484 1488 1490 1492 1495 1498 1501 1504 1507 1509 1511 1513 1515 1517 1518 1520 1521 1523 1525 1526 1528 1529 1531 1532 1533 1534 1534 1535 1535 1536 1537 1537 1538 1538 1539 1539 1540 1541 1541 1542 1543
1486 1486 1484 1486 1485 1485 1486 1486 1483 1485 1488 1491 1493 1496 1498 1501 1504 1507 1509 1511 1513 1515 1516 1518 1520 1521 1523 1525 1527 1528 1529 1530 1532 1532 1533 1534 1534 1535 1535 1536 1537 1537 1538 1539 1540 1540 1541 1542 1543
1485 1481 1482 1484 1487 1483 1485 1488 1480 1480 1484 1487 1490 1493 1495 1498 1501 1504 1506 1508 1510 1513 1514 1516 1518 1519 1521 1523 1525 1526 1527 1529 1530 1531 1532 1532 1533 1534 1534 1535 1536 1536 1538 1538 1539 1540 1540 1541 1542
1480 1480 1482 1482 1483 1483 1480 1486 1476 1477 1482 1482 1486 1489 1492 1495 1498 1501 1503 1505 1508 1511 1512 1514 1515 1517 1518 1520 1522 1524 1526 1527 1528 1529 1530 1531 1532 1532 1533 1534 1535 1535 1536 1537 1538 1539 1539 1540 1541
1480 1482 1482 1481 1480 1490 1480 1484 1480 1471 1475 1478 1482 1486 1489 1492 1495 1498 1500 1503 1505 1508 1510 1511 1513 1514 1516 1517 1519 1521 1523 1525 1526 1527 1529 1530 1531 1531 1531 1533 1533 1534 1535 1536 1537 1537 1538 1539 1539
1480 1484 1490 1491 1489 1484 1473 1479 1477 1470 1473 1476 1479 1483 1487 1489 1492 1494 1497 1500 1502 1504 1507 1509 1510 1511 1513 1515 1516 1518 1520 1522 1524 1526 1527 1528 1529 1530 1530 1531 1532 1533 1533 1534 1535 1535 1537 1537 1537
1476 1477 1486 1492 1486 1477 1475 1477 1471 1470 1475 1478 1480 1483 1485 1487 1489 1492 1494 1497 1499 1501 1504 1506 1507 1509 1511 1512 1514 1516 1518 1520 1522 1523 1525 1526 1528 1528 1529 1529 1530 1531 1532 1533 1533 1534 1535 1535 1535
1474 1473 1467 1474 1474 1478 1472 1471 1471 1472 1474 1477 1479 1481 1484 1486 1488 1490 1492 1494 1497 1499 1501 1503 1505 1506 1508 1510 1512 1513 1515 1517 1519 1521 1523 1525 1525 1527 1527 1528 1528 1529 1530 1531 1531 1532 1532 1533 1534
1468 1467 1472 1476 1485 1485 1476 1474 1470 1470 1472 1475 1477 1480 1482 1485 1487 1489 1490 1492 1494 1496 1498 1500 1502 1504 1506 1508 1510 1512 1513 1516 1518 1520 1521 1522 1523 1524 1525 1526 1527 1527 1528 1528 1529 1530 1530 1531 1532
1471 1471 1471 1470 1470 1479 1480 1474 1461 1466 1469 1473 1476 1479 1481 1484 1485 1487 1489 1490 1492 1494 1496 1498 1500 1502 1503 1506 1508 1510 1512 1514 1516 1518 1519 1520 1521 1522 1523 1524 1524 1525 1526 1526 1527 1528 1529 1529 1530
1464 1465 1469 1477 1475 1472 1473 1473 1463 1466 1469 1473 1475 1478 1481 1483 1484 1486 1487 1488 1490 1492 1494 1496 1498 1500 1502 1504 1505 1507 1510 1512 1514 1515 1517 1518 1519 1520 1521 1522 1522 1523 1524 1524 1525 1526 1526 1527 1527